| time (UTC) | temp F | wind direction | speed knots | gust knots | rain 1hr in | rain 24hr in | rain mn in | humidity % | barometer mb |
| 20260505111917 | 57 | 145 | 0.9 | 1.7 | 0.00 | 0.00 | 0.00 | 78 | 1012.6 |
| 20260505110938 | 57 | 0.0 | 0.0 | 0.00 | 0.00 | 0.00 | 79 | 1012.3 | |
| 20260505101919 | 56 | 0.0 | 0.0 | 0.00 | 0.00 | 0.00 | 78 | 1011.8 | |
| 20260505100919 | 56 | 0.0 | 0.0 | 0.00 | 0.00 | 0.00 | 78 | 1011.7 | |
| 20260505095919 | 56 | 145 | 0.0 | 0.9 | 0.00 | 0.00 | 0.00 | 78 | 1011.7 |
| 20260505094916 | 56 | 0.0 | 0.0 | 0.00 | 0.00 | 0.00 | 78 | 1011.6 | |
| 20260505093919 | 56 | 0.0 | 0.0 | 0.00 | 0.00 | 0.00 | 78 | 1011.4 | |
| 20260505092919 | 56 | 0.0 | 0.0 | 0.00 | 0.00 | 0.00 | 77 | 1011.4 | |
| 20260505091920 | 57 | 170 | 0.0 | 0.9 | 0.00 | 0.00 | 0.00 | 77 | 1011.3 |
| 20260505090937 | 57 | 191 | 0.0 | 0.0 | 0.00 | 0.00 | 0.00 | 76 | 1011.3 |
| 20260505085937 | 57 | 0.0 | 0.0 | 0.00 | 0.00 | 0.00 | 76 | 1011.2 | |
| 20260505084917 | 57 | 199 | 0.0 | 1.7 | 0.00 | 0.00 | 0.00 | 75 | 1011.2 |
| 20260505083917 | 58 | 255 | 0.0 | 0.9 | 0.00 | 0.00 | 0.00 | 74 | 1011.0 |
| 20260505082921 | 58 | 0.0 | 0.0 | 0.00 | 0.00 | 0.00 | 73 | 1011.0 | |
| 20260505081918 | 59 | 169 | 0.0 | 0.9 | 0.00 | 0.00 | 0.00 | 72 | 1011.0 |
| 20260505080958 | 59 | 0.0 | 0.0 | 0.00 | 0.00 | 0.00 | 72 | 1011.0 | |
| 20260505075918 | 59 | 174 | 0.0 | 0.9 | 0.00 | 0.00 | 0.00 | 71 | 1011.0 |
| 20260505074918 | 60 | 0.0 | 0.0 | 0.00 | 0.00 | 0.00 | 71 | 1010.9 | |
| 20260505073919 | 60 | 155 | 0.9 | 1.7 | 0.00 | 0.00 | 0.00 | 71 | 1010.8 |
| 20260505072918 | 60 | 178 | 0.0 | 0.9 | 0.00 | 0.00 | 0.00 | 70 | 1010.9 |
| 20260505071918 | 60 | 129 | 0.9 | 1.7 | 0.00 | 0.00 | 0.00 | 70 | 1010.8 |
| 20260505070939 | 61 | 202 | 0.0 | 1.7 | 0.00 | 0.00 | 0.00 | 69 | 1010.7 |
| 20260505065919 | 61 | 176 | 0.0 | 1.7 | 0.00 | 0.00 | 0.00 | 69 | 1010.7 |
| 20260505064919 | 61 | 141 | 0.9 | 2.6 | 0.00 | 0.00 | 0.00 | 69 | 1010.7 |
| 20260505063917 | 61 | 156 | 0.0 | 0.9 | 0.00 | 0.00 | 0.00 | 68 | 1010.7 |
| 20260505062916 | 61 | 136 | 1.7 | 4.3 | 0.00 | 0.00 | 0.00 | 68 | 1010.6 |
| 20260505061916 | 62 | 128 | 0.0 | 0.9 | 0.00 | 0.00 | 0.00 | 68 | 1010.6 |
| 20260505060920 | 62 | 147 | 1.7 | 2.6 | 0.00 | 0.00 | 0.00 | 67 | 1010.7 |
| 20260505055940 | 62 | 5 | 0.9 | 1.7 | 0.00 | 0.00 | 0.00 | 67 | 1010.7 |
| 20260505054917 | 62 | 150 | 0.9 | 4.3 | 0.00 | 0.00 | 0.00 | 67 | 1010.7 |
| 20260505053917 | 63 | 131 | 0.9 | 2.6 | 0.00 | 0.00 | 0.00 | 66 | 1010.7 |
| 20260505052917 | 63 | 26 | 0.0 | 1.7 | 0.00 | 0.00 | 0.00 | 66 | 1010.7 |
| 20260505051918 | 63 | 122 | 0.9 | 1.7 | 0.00 | 0.00 | 0.00 | 65 | 1010.8 |
| 20260505050918 | 63 | 358 | 0.9 | 1.7 | 0.00 | 0.00 | 0.00 | 65 | 1010.8 |
| 20260505040916 | 65 | 154 | 2.6 | 3.5 | 0.00 | 0.00 | 0.00 | 63 | 1010.6 |
| 20260505035916 | 65 | 286 | 0.9 | 2.6 | 0.00 | 0.00 | 0.00 | 63 | 1010.7 |
| 20260505034920 | 65 | 228 | 0.0 | 2.6 | 0.00 | 0.00 | 0.00 | 62 | 1010.6 |
| 20260505033919 | 66 | 159 | 1.7 | 3.5 | 0.00 | 0.00 | 0.00 | 62 | 1010.6 |
| 20260505032920 | 66 | 245 | 0.0 | 0.9 | 0.00 | 0.00 | 0.00 | 61 | 1010.6 |
| 20260505031937 | 67 | 133 | 0.9 | 3.5 | 0.00 | 0.00 | 0.00 | 61 | 1010.6 |
| 20260505030917 | 67 | 353 | 0.9 | 1.7 | 0.00 | 0.00 | 0.00 | 60 | 1010.7 |
| 20260505025920 | 67 | 103 | 0.9 | 2.6 | 0.00 | 0.00 | 0.00 | 60 | 1010.6 |
| 20260505024920 | 67 | 131 | 1.7 | 3.5 | 0.00 | 0.00 | 0.00 | 59 | 1010.6 |
| 20260505023938 | 68 | 135 | 0.9 | 2.6 | 0.00 | 0.00 | 0.00 | 57 | 1010.5 |
| 20260505022918 | 68 | 352 | 1.7 | 5.2 | 0.00 | 0.00 | 0.00 | 55 | 1010.3 |
| 20260505021938 | 69 | 172 | 0.9 | 2.6 | 0.00 | 0.00 | 0.00 | 52 | 1010.2 |
| 20260505020918 | 69 | 146 | 1.7 | 2.6 | 0.00 | 0.00 | 0.00 | 47 | 1010.1 |
| 20260505015918 | 69 | 0.0 | 0.0 | 0.00 | 0.00 | 0.00 | 45 | 1010.0 | |
| 20260505014919 | 69 | 114 | 0.0 | 0.9 | 0.00 | 0.00 | 0.00 | 45 | 1009.8 |
| 20260505013918 | 70 | 120 | 0.0 | 1.7 | 0.00 | 0.00 | 0.00 | 44 | 1009.7 |
| 20260505012939 | 70 | 253 | 0.0 | 0.9 | 0.00 | 0.00 | 0.00 | 43 | 1009.6 |
| 20260505011919 | 70 | 157 | 0.0 | 1.7 | 0.00 | 0.00 | 0.00 | 44 | 1009.5 |
| 20260505010919 | 70 | 191 | 0.9 | 2.6 | 0.00 | 0.00 | 0.00 | 43 | 1009.4 |
| 20260505005916 | 70 | 24 | 0.0 | 0.0 | 0.00 | 0.00 | 0.00 | 43 | 1009.2 |
| 20260505004936 | 70 | 330 | 0.0 | 0.9 | 0.00 | 0.00 | 0.00 | 43 | 1009.0 |
| 20260505003920 | 71 | 204 | 0.0 | 0.9 | 0.00 | 0.00 | 0.00 | 42 | 1008.9 |
| 20260505002921 | 72 | 167 | 0.0 | 0.9 | 0.00 | 0.00 | 0.00 | 41 | 1008.8 |
| 20260505001917 | 73 | 192 | 0.9 | 1.7 | 0.00 | 0.00 | 0.00 | 39 | 1008.7 |
| 20260505000938 | 73 | 156 | 0.0 | 1.7 | 0.00 | 0.00 | 0.00 | 38 | 1008.6 |
| 20260504235917 | 74 | 347 | 0.9 | 1.7 | 0.00 | 0.00 | 0.00 | 37 | 1008.6 |
| 20260504234917 | 76 | 169 | 0.0 | 0.0 | 0.00 | 0.00 | 0.00 | 33 | 1008.4 |
| 20260504233919 | 77 | 141 | 0.9 | 1.7 | 0.00 | 0.00 | 0.00 | 32 | 1008.4 |
| 20260504232918 | 78 | 0.0 | 0.0 | 0.00 | 0.00 | 0.00 | 31 | 1008.4 | |
| 20260504231918 | 79 | 223 | 0.9 | 1.7 | 0.00 | 0.00 | 0.00 | 30 | 1008.3 |
| 20260504230918 | 79 | 48 | 0.9 | 2.6 | 0.00 | 0.00 | 0.00 | 30 | 1008.3 |
| 20260504225958 | 79 | 207 | 0.9 | 1.7 | 0.00 | 0.00 | 0.00 | 30 | 1008.4 |
| 20260504224919 | 80 | 135 | 2.6 | 2.6 | 0.00 | 0.00 | 0.00 | 30 | 1008.5 |
| 20260504223917 | 80 | 181 | 0.9 | 2.6 | 0.00 | 0.00 | 0.00 | 30 | 1008.5 |
| 20260504222916 | 79 | 139 | 0.0 | 0.9 | 0.00 | 0.00 | 0.00 | 31 | 1008.5 |
| 20260504221919 | 79 | 5 | 1.7 | 5.2 | 0.00 | 0.00 | 0.00 | 32 | 1008.5 |
| 20260504220919 | 80 | 141 | 1.7 | 3.5 | 0.00 | 0.00 | 0.00 | 32 | 1008.5 |
| 20260504215920 | 80 | 155 | 0.9 | 2.6 | 0.00 | 0.00 | 0.00 | 31 | 1008.5 |
| 20260504214937 | 80 | 137 | 1.7 | 3.5 | 0.00 | 0.00 | 0.00 | 32 | 1008.6 |
| 20260504213917 | 80 | 264 | 0.9 | 2.6 | 0.00 | 0.00 | 0.00 | 31 | 1008.5 |
| 20260504212916 | 80 | 247 | 2.6 | 4.3 | 0.00 | 0.00 | 0.00 | 32 | 1008.6 |
| 20260504212038 | 80 | 324 | 0.9 | 1.7 | 0.00 | 0.00 | 0.00 | 32 | 1008.7 |
| 20260504210921 | 80 | 282 | 3.5 | 5.2 | 0.00 | 0.00 | 0.00 | 33 | 1008.8 |
| 20260504205938 | 79 | 259 | 0.9 | 4.3 | 0.00 | 0.00 | 0.00 | 34 | 1008.8 |
| 20260504204918 | 80 | 304 | 3.5 | 7.0 | 0.00 | 0.00 | 0.00 | 33 | 1008.8 |
| 20260504203918 | 79 | 284 | 2.6 | 4.3 | 0.00 | 0.00 | 0.00 | 32 | 1009.0 |
| 20260504202918 | 79 | 286 | 0.9 | 2.6 | 0.00 | 0.00 | 0.00 | 33 | 1009.1 |
| 20260504201939 | 79 | 334 | 1.7 | 4.3 | 0.00 | 0.00 | 0.00 | 34 | 1009.3 |
| 20260504200918 | 79 | 143 | 2.6 | 5.2 | 0.00 | 0.00 | 0.00 | 33 | 1009.3 |
| 20260504195918 | 78 | 80 | 0.0 | 0.9 | 0.00 | 0.00 | 0.00 | 33 | 1009.4 |
| 20260504194920 | 78 | 144 | 1.7 | 3.5 | 0.00 | 0.00 | 0.00 | 34 | 1009.5 |
| 20260504193919 | 78 | 120 | 2.6 | 6.1 | 0.00 | 0.00 | 0.00 | 34 | 1009.6 |
| 20260504192917 | 78 | 123 | 1.7 | 3.5 | 0.00 | 0.00 | 0.00 | 34 | 1009.8 |
| 20260504191917 | 77 | 112 | 2.6 | 4.3 | 0.00 | 0.00 | 0.00 | 34 | 1009.9 |
| 20260504190917 | 77 | 134 | 1.7 | 5.2 | 0.00 | 0.00 | 0.00 | 34 | 1009.9 |
| 20260504185916 | 76 | 321 | 0.9 | 1.7 | 0.00 | 0.00 | 0.00 | 37 | 1010.0 |
| 20260504184920 | 76 | 151 | 1.7 | 4.3 | 0.00 | 0.00 | 0.00 | 35 | 1010.1 |
| 20260504183920 | 77 | 284 | 4.3 | 7.8 | 0.00 | 0.00 | 0.00 | 35 | 1010.3 |
| 20260504182920 | 76 | 307 | 0.9 | 4.3 | 0.00 | 0.00 | 0.00 | 37 | 1010.5 |
| 20260504181918 | 75 | 318 | 2.6 | 5.2 | 0.00 | 0.00 | 0.00 | 38 | 1010.5 |
| 20260504180918 | 74 | 121 | 1.7 | 3.5 | 0.00 | 0.00 | 0.00 | 37 | 1010.6 |
| 20260504175918 | 75 | 132 | 0.9 | 2.6 | 0.00 | 0.00 | 0.00 | 37 | 1010.7 |
| 20260504174918 | 74 | 314 | 1.7 | 3.5 | 0.00 | 0.00 | 0.00 | 38 | 1010.7 |
| 20260504173918 | 75 | 280 | 3.5 | 6.1 | 0.00 | 0.00 | 0.00 | 37 | 1010.8 |
| 20260504172918 | 75 | 248 | 0.9 | 1.7 | 0.00 | 0.00 | 0.00 | 38 | 1010.9 |
| 20260504171958 | 74 | 128 | 1.7 | 3.5 | 0.00 | 0.00 | 0.00 | 39 | 1011.3 |
| 20260504170918 | 74 | 355 | 1.7 | 3.5 | 0.00 | 0.00 | 0.00 | 38 | 1011.3 |
| 20260504150939 | 67 | 233 | 0.9 | 2.6 | 0.00 | 0.00 | 0.00 | 52 | 1012.2 |
| 20260504140920 | 62 | 290 | 2.6 | 5.2 | 0.00 | 0.00 | 0.00 | 63 | 1012.7 |